Regional Weather Roundup
Issued by NWS

Home | Current Version | Previous Version | Graphics & Text | Print | Product List | Glossary On
Versions: 1 2 3 4 5 6 7 8 9 10 11 12 13 14 15 16 17 18 19 20 21 22 23 24 25 26 27 28 29 30 31 32 33 34 35 36 37 38 39 40 41 42 43 44 45 46 47 48 49 50
000
ASUS45 KABQ 240201
RWRNM
NEW MEXICO REGIONAL WEATHER ROUNDUP
NATIONAL WEATHER SERVICE ALBUQUERQUE NM
800 PM MDT FRI JUN 23 2017

NOTE: "FAIR" MEANS FEW OR NO CLOUDS BELOW 12,000 FEET AGL WITH NO
       SIGNIFICANT WEATHER OR OBSTRUCTIONS TO VISION.

      THIS PRODUCT IS RELEASED AS TWO VERSIONS.  ONE VERSION NEAR
      THE TOP OF THE HOUR CONTAINING PRELIMINARY DATA FROM ALBUQUERQUE
      AND OTHER STATIONS.  A FINAL VERSION WITH ADDITIONAL DATA IS
      ISSUED ABOUT 10 MINUTES AFTER THE HOUR.

NMZ501-503-504-510>518-240300-
NORTHWEST PLATEAU/NORTHCENTRAL MOUNTAINS

CITY           SKY/WX    TMP DP  RH WIND       PRES   REMARKS
FARMINGTON     FAIR      91  18   7 NW13G26   30.03R
LOS ALAMOS     FAIR      75  49  39 S10G22    30.24R
SANTA FE       FAIR      76  53  44 SE23G31   30.16R
TAOS           FAIR      75  45  33 E15G24    30.20R

$$
NMZ402-403-502-505>509-240300-
WESTCENTRAL MOUNTAINS/SOUTHWEST MOUNTAINS

CITY           SKY/WX    TMP DP  RH WIND       PRES   REMARKS
GALLUP         FAIR      88  27  11 SW3       30.13S
GRANTS         FAIR      87  26  10 NW9       30.16F

$$
NMZ407-409-411-412-240300-
SOUTHERN DESERTS

CITY           SKY/WX    TMP DP  RH WIND       PRES   REMARKS
DEMING         FAIR      99  26   7 NW7       29.90R
LAS CRUCES     FAIR      98  27   8 N3        29.91S
ALAMOGORDO     FAIR      93  46  20 E20G25    29.90R
T OR C         FAIR      99  24   7 W5        29.94R

$$
NMZ519>523-240300-
CENTRAL VALLEYS/CENTRAL HIGHLANDS

CITY           SKY/WX    TMP DP  RH WIND       PRES   REMARKS
ALBUQUERQUE    FAIR      84  53  34 E22       30.04R
DOUBLE EAGLE   PTCLDY    84  54  34 SE20      30.08R
MORIARTY ARPT  FAIR      77  53  42 E15       30.21R
CLINES CORNERS FAIR      69  50  50 E20G25    30.27R
BELEN          FAIR      88  49  26 SE20G26   30.03R
SOCORRO        FAIR      88  50  27 E13G24    29.99R

$$
NMZ524>526-539-540-240300-
SOUTHCENTRAL MOUNTAINS

CITY           SKY/WX    TMP DP  RH WIND       PRES   REMARKS
RUIDOSO        FAIR      70  55  60 SE9       30.27S

$$
NMZ527>531-240300-
NORTHEAST HIGHLANDS/NORTHEAST PLAINS

CITY           SKY/WX    TMP DP  RH WIND       PRES   REMARKS
LAS VEGAS      FAIR      67  47  48 SE14      30.27R
RATON          MOCLDY    68  47  46 SE9       30.24R
CLAYTON        FAIR      65  50  58 E15       30.21R

$$
NMZ532>537-240300-
EASTCENTRAL PLAINS

CITY           SKY/WX    TMP DP  RH WIND       PRES   REMARKS
SANTA ROSA     FAIR      76  52  42 NE12      30.14R
TUCUMCARI      FAIR      77  52  41 NE18      30.09R
CANNON AFB     FAIR      79  59  50 E15       30.10R
CLOVIS AIRPORT FAIR      78  61  55 E14       30.09R

$$
NMZ028-029-538-240300-
SOUTHEAST PLAINS

CITY           SKY/WX    TMP DP  RH WIND       PRES   REMARKS
ROSWELL        FAIR      88  59  37 NE14      29.99R
ARTESIA        FAIR      91  61  35 E15G24    29.97R
CARLSBAD       FAIR      90  51  26 NE10      29.95R
HOBBS          FAIR      79  59  50 SW3       29.98S


$$



USA.gov is the U.S. government's official web portal to all federal, state and local government web resources and services.